• In Belarus
  • List of Countries
  • For 7 days
  • Water Temperature
  • Satellite Maps
  • Weather Map
  • Weather Widgets
  • user-avatar
    Login

    Hourly Weather Barnaul

    Today, 27 May, Sunday

    Time Temperature Precipitation Wind Pressure Humidity
    00:00 +20°C° 0 mm 8 mps 733 mmHg 54%
    01:00 +20°C° 0 mm 8 mps 733 mmHg 54%
    02:00 +18°C° 0 mm 8 mps 733 mmHg 53%
    03:00 +18°C° 0 mm 9 mps 733 mmHg 52%
    04:00 +18°C° 0.1 mm 8 mps 733 mmHg 54%
    05:00 +17°C° 0.1 mm 8 mps 733 mmHg 57%
    06:00 +17°C° 0 mm 3 mps 733 mmHg 66%
    07:00 +19°C° 0 mm 5 mps 733 mmHg 61%
    08:00 +21°C° 0 mm 7 mps 733 mmHg 57%
    09:00 +22°C° 0 mm 8 mps 732 mmHg 52%
    10:00 +24°C° 0 mm 8 mps 732 mmHg 50%
    11:00 +26°C° 0 mm 9 mps 732 mmHg 47%
    12:00 +28°C° 0 mm 8 mps 732 mmHg 47%
    13:00 +28°C° 0 mm 8 mps 732 mmHg 47%
    14:00 +29°C° 0 mm 7 mps 732 mmHg 46%
    15:00 +29°C° 0 mm 7 mps 732 mmHg 45%
    16:00 +28°C° 0 mm 6 mps 731 mmHg 48%
    17:00 +28°C° 0 mm 5 mps 731 mmHg 51%
    18:00 +27°C° 0 mm 3 mps 731 mmHg 55%
    19:00 +25°C° 0 mm 3 mps 730 mmHg 60%
    20:00 +22°C° 0 mm 3 mps 730 mmHg 66%
    21:00 +19°C° 0 mm 3 mps 730 mmHg 71%
    22:00 +19°C° 0 mm 3 mps 729 mmHg 71%
    23:00 +18°C° 0 mm 3 mps 729 mmHg 71%

    Tomorrow, 28 May, Monday

    Time Temperature Precipitation Wind Pressure Humidity
    00:00 +17°C° 0 mm 3 mps 729 mmHg 71%
    01:00 +16°C° 0 mm 2 mps 729 mmHg 74%
    02:00 +15°C° 0 mm 2 mps 728 mmHg 76%
    03:00 +14°C° 0 mm 2 mps 728 mmHg 79%
    04:00 +12°C° 0 mm 3 mps 729 mmHg 80%
    05:00 +11°C° 0 mm 4 mps 730 mmHg 82%
    06:00 +9°C° 0 mm 5 mps 730 mmHg 83%
    07:00 +9°C° 0 mm 5 mps 731 mmHg 82%
    08:00 +9°C° 0 mm 5 mps 733 mmHg 80%
    09:00 +10°C° 0 mm 4 mps 734 mmHg 78%
    10:00 +10°C° 0 mm 4 mps 734 mmHg 76%
    11:00 +11°C° 0 mm 4 mps 735 mmHg 73%
    12:00 +11°C° 0 mm 4 mps 736 mmHg 71%
    13:00 +11°C° 0.1 mm 4 mps 736 mmHg 72%
    14:00 +10°C° 0.1 mm 4 mps 737 mmHg 73%
    15:00 +10°C° 0.1 mm 4 mps 738 mmHg 74%
    16:00 +8°C° 0.6 mm 4 mps 738 mmHg 78%
    17:00 +7°C° 0.6 mm 4 mps 739 mmHg 82%
    18:00 +7°C° 0.6 mm 3 mps 740 mmHg 86%
    19:00 +7°C° 0.3 mm 3 mps 740 mmHg 87%
    20:00 +7°C° 0.3 mm 3 mps 741 mmHg 89%
    21:00 +7°C° 0.3 mm 3 mps 741 mmHg 90%
    22:00 +5°C° 0.2 mm 3 mps 741 mmHg 91%
    23:00 +5°C° 0.2 mm 3 mps 742 mmHg 91%

    Day after tomorrow, 29 May, Tuesday

    Time Temperature Precipitation Wind Pressure Humidity
    00:00 +5°C° 0.2 mm 3 mps 742 mmHg 92%
    01:00 +5°C° 0 mm 3 mps 742 mmHg 92%
    02:00 +5°C° 0 mm 4 mps 741 mmHg 92%
    03:00 +5°C° 0 mm 4 mps 741 mmHg 92%
    04:00 +5°C° 0 mm 5 mps 741 mmHg 89%
    05:00 +5°C° 0 mm 5 mps 741 mmHg 87%
    06:00 +5°C° 0 mm 6 mps 741 mmHg 84%
    07:00 +7°C° 0.2 mm 6 mps 741 mmHg 84%
    08:00 +8°C° 0.2 mm 7 mps 741 mmHg 83%
    09:00 +10°C° 0.2 mm 7 mps 741 mmHg 82%
    10:00 +12°C° 0.1 mm 8 mps 741 mmHg 75%
    11:00 +15°C° 0.1 mm 8 mps 740 mmHg 68%
    12:00 +17°C° 0.1 mm 9 mps 740 mmHg 61%
    13:00 +17°C° 0.2 mm 9 mps 740 mmHg 58%
    14:00 +18°C° 0.2 mm 8 mps 740 mmHg 55%
    15:00 +18°C° 0.2 mm 8 mps 740 mmHg 51%
    16:00 +18°C° 0 mm 7 mps 740 mmHg 54%
    17:00 +17°C° 0 mm 6 mps 740 mmHg 56%
    18:00 +17°C° 0 mm 6 mps 739 mmHg 59%
    19:00 +16°C° 0 mm 5 mps 739 mmHg 61%
    20:00 +15°C° 0 mm 5 mps 739 mmHg 64%
    21:00 +14°C° 0 mm 4 mps 739 mmHg 66%
    22:00 +14°C° 0 mm 4 mps 739 mmHg 67%
    23:00 +13°C° 0 mm 4 mps 739 mmHg 68%

    30 May, Wednesday

    Time Temperature Precipitation Wind Pressure Humidity
    00:00 +13°C° 0 mm 3 mps 738 mmHg 69%
    01:00 +12°C° 0 mm 3 mps 738 mmHg 72%
    02:00 +11°C° 0 mm 3 mps 737 mmHg 74%
    03:00 +11°C° 0 mm 4 mps 736 mmHg 77%
    04:00 +11°C° 0 mm 4 mps 736 mmHg 75%
    05:00 +12°C° 0 mm 4 mps 736 mmHg 74%
    06:00 +12°C° 0 mm 5 mps 735 mmHg 72%
    07:00 +14°C° 0 mm 5 mps 735 mmHg 67%
    08:00 +16°C° 0 mm 5 mps 734 mmHg 62%
    09:00 +19°C° 0 mm 5 mps 734 mmHg 57%
    10:00 +21°C° 0 mm 5 mps 733 mmHg 50%
    11:00 +22°C° 0 mm 5 mps 733 mmHg 44%
    12:00 +24°C° 0 mm 6 mps 732 mmHg 37%
    13:00 +24°C° 0 mm 6 mps 732 mmHg 37%
    14:00 +26°C° 0 mm 6 mps 732 mmHg 37%
    15:00 +26°C° 0 mm 7 mps 731 mmHg 37%
    16:00 +26°C° 0 mm 7 mps 731 mmHg 40%
    17:00 +24°C° 0 mm 6 mps 731 mmHg 44%
    18:00 +24°C° 0 mm 6 mps 730 mmHg 48%
    19:00 +22°C° 0 mm 7 mps 730 mmHg 45%
    20:00 +21°C° 0 mm 8 mps 731 mmHg 41%
    21:00 +19°C° 0 mm 9 mps 731 mmHg 38%
    22:00 +18°C° 0 mm 8 mps 731 mmHg 40%
    23:00 +16°C° 0 mm 7 mps 732 mmHg 43%

    31 May, Thursday

    Time Temperature Precipitation Wind Pressure Humidity
    00:00 +15°C° 0 mm 6 mps 732 mmHg 45%
    01:00 +15°C° 0 mm 6 mps 732 mmHg 47%
    02:00 +14°C° 0 mm 6 mps 733 mmHg 48%
    03:00 +13°C° 0 mm 6 mps 733 mmHg 50%
    04:00 +13°C° 0 mm 6 mps 734 mmHg 55%
    05:00 +11°C° 0 mm 6 mps 734 mmHg 60%
    06:00 +10°C° 0 mm 7 mps 735 mmHg 64%
    07:00 +10°C° 0.2 mm 7 mps 736 mmHg 69%
    08:00 +10°C° 0.2 mm 7 mps 737 mmHg 74%
    09:00 +10°C° 0.2 mm 7 mps 739 mmHg 79%
    10:00 +10°C° 0.5 mm 7 mps 740 mmHg 77%
    11:00 +10°C° 0.5 mm 6 mps 741 mmHg 74%
    12:00 +10°C° 0.5 mm 6 mps 743 mmHg 72%
    13:00 +11°C° 0 mm 6 mps 743 mmHg 63%
    14:00 +13°C° 0 mm 6 mps 743 mmHg 55%
    15:00 +14°C° 0 mm 6 mps 744 mmHg 47%
    16:00 +14°C° 0 mm 5 mps 744 mmHg 50%
    17:00 +14°C° 0 mm 5 mps 744 mmHg 52%
    18:00 +13°C° 0 mm 4 mps 744 mmHg 55%
    19:00 +13°C° 0 mm 4 mps 745 mmHg 55%
    20:00 +13°C° 0 mm 4 mps 745 mmHg 55%
    21:00 +12°C° 0 mm 5 mps 745 mmHg 56%
    22:00 +12°C° 0 mm 5 mps 744 mmHg 55%
    23:00 +10°C° 0 mm 6 mps 744 mmHg 55%

    1 June, Friday

    Time Temperature Precipitation Wind Pressure Humidity
    00:00 +10°C° 0 mm 6 mps 743 mmHg 55%
    01:00 +10°C° 0 mm 7 mps 743 mmHg 53%
    02:00 +11°C° 0 mm 7 mps 742 mmHg 51%
    03:00 +11°C° 0 mm 7 mps 742 mmHg 49%
    04:00 +11°C° 0 mm 7 mps 742 mmHg 50%
    05:00 +12°C° 0 mm 7 mps 741 mmHg 50%
    06:00 +12°C° 0 mm 7 mps 741 mmHg 51%
    07:00 +13°C° 0 mm 8 mps 741 mmHg 51%
    08:00 +16°C° 0 mm 9 mps 741 mmHg 50%
    09:00 +17°C° 0 mm 10 mps 741 mmHg 50%
    10:00 +18°C° 0 mm 10 mps 741 mmHg 48%
    11:00 +19°C° 0 mm 11 mps 740 mmHg 46%
    12:00 +22°C° 0 mm 11 mps 740 mmHg 45%
    13:00 +22°C° 0 mm 11 mps 740 mmHg 44%
    14:00 +23°C° 0 mm 10 mps 740 mmHg 44%
    15:00 +23°C° 0 mm 10 mps 739 mmHg 44%
    16:00 +23°C° 0 mm 9 mps 739 mmHg 45%
    17:00 +22°C° 0 mm 8 mps 739 mmHg 47%
    18:00 +22°C° 0 mm 8 mps 739 mmHg 48%
    19:00 +21°C° 0 mm 7 mps 739 mmHg 50%
    20:00 +20°C° 0 mm 7 mps 739 mmHg 51%
    21:00 +20°C° 0 mm 6 mps 740 mmHg 52%
    22:00 +17°C° 0 mm 5 mps 740 mmHg 60%
    23:00 +17°C° 0 mm 4 mps 740 mmHg 68%
    Show more